Regional Weather Roundup
Issued by NWS Wakefield, VA

Home | Current Version | Previous Version | Graphics & Text | Print | Product List | Glossary On
Versions: 1 2 3 4 5 6 7 8 9 10 11 12 13 14 15 16 17 18 19 20 21 22 23 24 25 26 27 28 29 30 31 32 33 34 35 36 37 38 39 40 41 42 43 44 45 46 47 48 49 50
000
ASUS41 KAKQ 271310
RWRAKQ

REGIONAL WEATHER ROUNDUP
NATIONAL WEATHER SERVICE WAKEFIELD VA
800 AM EST THU NOV 27 2014

Note: "fair" indicates few or no clouds below 12,000 feet with no
significant weather and/or obstructions to visibility. * = Denotes
station may not report precipitation (e.g., rain,snow,etc.),
thunder or fog.

VAZ042-051-052>054-056-271400-
NORTHERN VIRGINIA

CITY           SKY/WX    TMP DP  RH WIND       PRES   REMARKS
WASH NATIONAL  MOCLDY    40  33  76 N6        30.05R
DULLES         MOCLDY    34  33  96 W3        30.04R
FORT BELVOIR   CLOUDY    35  34  96 N1        30.05R FOG
QUANTICO       CLOUDY    37  34  89 NW5       30.06R
FREDERICKSBRG* FOG       36  36 100 CALM      30.04R VSB 1/4
STAFFORD*      CLOUDY    34  34 100 CALM      30.08R FOG
WARRENTON      CLOUDY    35  35 100 CALM      30.03R FOG
CULPEPER*      CLOUDY    36  36 100 CALM      30.04R FOG
MANASSAS*      LGT RAIN  36  36 100 CALM      30.05R
LEESBURG*      PTCLDY    36  36 100 N3        30.04R
WINCHESTER     FOG       30  28  93 CALM      30.03R VSB<1/4
FRONT ROYAL*   CLOUDY    32  32 100 CALM      30.03R VSB<1/4
LURAY*         FOG       32  32 100 CALM      30.02R VSB<1/4
$$

VAZ048-049-060>072-079>083-271400-
CENTRAL AND SOUTH CENTRAL VIRGINIA

CITY           SKY/WX    TMP DP  RH WIND       PRES   REMARKS
RICHMOND       LGT RAIN  40  38  93 S5        30.04R FOG
CHESTERFIELD*  PTSUNNY   39  28  65 CALM      30.04S
PETERSBURG*    LGT RAIN  40  39  98 CALM      30.04S
HANOVER        FOG       37  36  96 CALM      30.05R VSB 3/4
TAPPAHANNOCK*  CLOUDY    35  32  92 CALM      30.05S FOG
QUINTON*       CLOUDY    37  37 100 CALM      30.04S
CHARLOTTSVILLE MOCLDY    35  33  92 CALM      30.01R FOG
GORDONSVILLE*  FOG       34  34  99 CALM      30.02R VSB 1/4
ORANGE*        FOG       36  36 100 CALM      30.04R VSB 3/4
LOUISA*        FOG       37  36  93 CALM      30.01R VSB 1/4
BUMPASS*       CLOUDY    35  35  99 CALM      30.03R VSB<1/4
FARMVILLE*     CLOUDY    40  40 100 CALM        N/A
CREWE*         CLOUDY    40  39  96 CALM      30.02R
FORT PICKETT*  CLOUDY    39  39  98 S6        30.03R
CHASE CITY*    CLOUDY    42  42 100 CALM      30.03S
CLARKSVILLE*     N/A     39  39 100 CALM      30.03S
SOUTH HILL*    CLOUDY    38  38  99 CALM      30.09S
LAWRENCEVILLE* CLOUDY    38  38 100 S3        30.04R
$$

VAZ088>098-271400-
SOUTHEAST VIRGINIA

CITY           SKY/WX    TMP DP  RH WIND       PRES   REMARKS
NORFOLK        CLOUDY    40  37  89 S6        30.06R
VIRGINIA BEACH CLOUDY    41  37  86 SW5       30.06S
NORFOLK NAVAL  CLOUDY    42  37  82 S5        30.07S
WEST POINT*    CLOUDY    42  40  93 SW3       30.07S
SALUDA*        CLOUDY    37  37  97 CALM      30.05R
NEWPORT NEWS   LGT RAIN  44  39  82 CALM      30.05S
LANGLEY AFB    LGT RAIN  40  40 100 S6        30.06R
FORT EUSTIS    CLOUDY    40  40 100 SW5       30.04S
WILLIAMSBURG*  MOCLDY    43  41  93 CALM      30.06S
HR EXEC AP*    CLOUDY    37  36  93 S5        30.08S
FRANKLIN*      CLOUDY    37 N/A N/A S3        30.06R
WAKEFIELD      LGT RAIN  40  38  93 S3        30.05S FOG
$$

VAZ020-022-025-037-045-271400-
WEST CENTRAL AND SOUTHWEST VIRGINIA

CITY           SKY/WX    TMP DP  RH WIND       PRES   REMARKS
STAUNTON*      FOG       29  28  94 CALM      30.02R VSB 1/4
WAYNESBORO*    CLOUDY    30  30 100 CALM      29.99S
HOT SPRINGS VA   N/A    N/A N/A N/A MISG        N/A
LYNCHBURG      CLOUDY    37  37 100 MISG      30.02S FOG
DANVILLE       LGT RAIN  41  38  89 E6        30.02S
SOUTH BOSTON*  CLOUDY    40  39  95 CALM      30.03S
MARTINSVILLE   LGT RAIN  38  38 100 CALM      30.03R
ROANOKE        LGT RAIN  36  35  96 CALM      30.03R
BLACKSBURG     SNOW      34  34 100 CALM      30.00R VSB<1/4
DUBLIN*        CLOUDY    35  35 100 CALM      30.00R FOG
MARION*        LGT RAIN  33  32  96 N5        30.01R
HILLSVILLE*    LGT SNOW  32  31  98 NW7       29.96S
RICHLANDS*     SNOW      35  33  94 CALM      30.00R VSB<1/4
WISE*          LGT SNOW  32  32 100 NW8       30.04R
ABINGDON*      CLOUDY    34  34 100 W5        30.03R FOG
$$

MDZ021>025-VAZ099-100-271400-
SOUTHERN MARYLAND AND THE DELMARVA PENINSULA

CITY           SKY/WX    TMP DP  RH WIND       PRES   REMARKS
PATUXENT RIVER PTCLDY    34  32  92 CALM      30.05R
BAY BRIDGE APT   N/A     37  30  75 NW6       30.05R
LEONARDTOWN    FAIR      32  32 100 CALM      30.06R
DOVER          PTCLDY    35  33  93 W6        30.01R
GEORGETOWN     CLEAR     34  32  92 CALM      30.05R
EASTON         PTCLDY    37  37 100 CALM      30.07R
CAMBRIDGE      FAIR      36  34  93 CALM      30.03S
SALISBURY      CLEAR     37  33  85 CALM      30.04R FOG
OCEAN CITY     MOSUNNY   36  34  92 NW3       30.05R
WALLOPS ISLAND SUNNY     38  34  85 NW6       30.05S
ACCOMACK*      CLOUDY    36  32  87 W3        30.05S
$$

NCZ012>017-030>032-271400-
NORTH CENTRAL AND EASTERN NORTH CAROLINA

CITY           SKY/WX    TMP DP  RH WIND       PRES   REMARKS
ROANOKE RAPIDS RAIN      37  37 100 CALM      30.04F
RALEIGH        LGT RAIN  41  39  93 SE6       30.01F FOG
ELIZABETH CITY CLOUDY    42  38  85 CALM      30.07S
AHOSKIE*       LGT RAIN  38  37  96 CALM      30.06S
EDENTON*       CLOUDY    42  39  91 S6        30.07S
CURRITUCK*     CLOUDY    39  38  95 CALM      30.08S
KILL DEVIL HLS PTSUNNY   41  40  96 CALM      30.06S
MANTEO         PTSUNNY   41  38  88 SW3       30.08S
CAPE HATTERAS  CLOUDY    43  42  97 CALM      30.08S
TARBORO*       CLOUDY    39  38  95 CALM      30.05F
GOLDSBORO      PTCLDY    39  39  98 E8        30.01F
WASHINGTON     PTSUNNY   40  38  92 SE3       30.06F
GREENVILLE     MOSUNNY   41  37  87 S6        30.07S
NEW BERN       CLOUDY    43  39  86 CALM      30.07S
WILMINGTON     CLOUDY    44  42  93 S3        30.04F
$$

VAZ048-271400-
ELSEWHERE

CITY           SKY/WX    TMP DP  RH WIND       PRES   REMARKS
HARRISBURG PA  MOCLDY    34  29  82 NW9       30.03R
BALTIMORE      PTCLDY    35  31  85 CALM      30.03R
ANNAPOLIS      PTCLDY    36  32  85 NW3       30.04R
ANDREWS AFB    CLOUDY    34  32  94 SW2       30.03R
PHILADELPHIA   CLOUDY    37  30  75 W6        30.02R
WILDWOOD NJ*   CLOUDY    37  30  75 W8        30.02R
HENDERSON NC   DRIZZLE   40  38  95 NE9       30.01F
GREENSBORO     CLOUDY    41  40  96 N5        29.99R FOG
ROCKY MOUNT    CLOUDY    40  38  93 CALM      30.03F
$$

VAZ100-271400-
MARINE

STATION/POSITION TIME  TEMP    WIND        PRES    WAVE   SWELL
                       AIR SEA DIR/SP/G            HT/PER HT/PER
                 (UTC) (F)     (DEG/KT/KT) (MB)    (FT/S) (FT/S)
CAPE MAY NJ      1300   38 47  310/ 10/ 14 1016.5R
LEWES DE         1300   36 47  280/  7/  9 1017.0R
15NM E FENWICK I 1300   40 54              1016.8R   6/ 9
OCEAN-CITY-INLET 1300   37 48  320/  4/  5 1017.0R
WACHAPREAGUE VA  1300   38 47  270/  1/  2 1017.5S
THOMAS POINT MD  1300   37 47  310/  5/  6 1018.5R
GOOSES REEF MD   1300   40 48  360/ 10/ 12 1017.5R   1/ 2
COVE POINT MD    1300   37     270/  5/  7 1017.2R
SOLOMONS ISLAND  1300      49                N/A
BISHOPS HEAD MD  1300   39 44   60/  1/  1 1016.9R
PINEY POINT MD   1300          280/  4/  5   N/A
POTOMAC MD       1300   42 49  280/  4/  4 1016.5S   1/ 2
CAMBRIDGE MD     1300   40 45  300/  4/  8 1016.9R
LEWISETTA VA     1300   38 47  250/  2/  3 1017.0S
RAPPAHANNOCK LGT 1300          290/  2/  3 1017.8S
STINGRAY PT      1300   42 49  270/  4/  6 1018.0R   0
YORK RVR RNG VA  1300   42     220/ 11/ 12 1017.0S
YORKTOWN VA      1300   41 50  200/  5/  7 1017.2F
JAMESTOWN VA     1300   39 49  240/  2/  4   N/A     0
DOMINION TERM VA 1300   40     200/  5/  7 1017.6F
KIPTOPEKE VA     1300      54  220/  8/ 11   N/A
CHES BAY BRIDGE  1300   41 51  210/  9/ 12 1017.1F
CAPE HENRY VA    1300   40     210/  7/  9 1016.5S
CHESAPEAKE LGHT  1200   43     250/ 11/ 13 1018.5R
WILLOUBY STN VA  1300   41     210/  7/  8 1016.2F
S CRANEY ISL VA  1300          160/  6/  8 1017.7S
CAPE HENRY BUOY  1200      56                N/A     4/ 9   2/11
1ST LANDING BUOY 1300   42 51  220/ 10/ 12 1017.4S   2/ 4
CAPE CHARLES BUO 1300      54                N/A     4/ 9   3/ 9
64NM E OF VA BCH 1300   48 62  300/ 10/ 12 1017.5R   8/10   7/10
DUCK PIER NC     1300   44 54  220/  1/  3 1017.4F
44100 DUCK FRF   1300      58                N/A     5/10   2/11
44056 DUCK FRF   1300      56                N/A     5/10   2/11
OREGON INLET NC  1300   44 56  230/  3/  5 1018.5S
HATTERAS NC      1300   45 59     CALM     1018.8R
DIAMOND SHLS NC  1300   52      CALM  /  2 1018.5F   5/ 9   5/ 9



USA.gov is the U.S. government's official web portal to all federal, state and local government web resources and services.